Regional Weather Roundup
Issued by NWS Mt. Holly, NJ

Home | Current Version | Previous Version | Text Only | Print | Product List | Glossary On
Versions: 1 2 3 4 5 6 7 8 9 10 11 12 13 14 15 16 17 18 19 20 21 22 23 24 25 26 27 28 29 30 31 32 33 34 35 36 37 38 39 40 41 42 43 44 45 46 47 48 49 50
007
ASUS41 KPHI 261312
RWRPHI

REGIONAL WEATHER ROUNDUP
NATIONAL WEATHER SERVICE MOUNT HOLLY NJ
900 AM EDT WED JUL 26 2017

NOTE:  "FAIR" INDICATES FEW OR NO CLOUDS BELOW 12,000 FEET WITH NO
SIGNIFICANT WEATHER AND/OR OBSTRUCTIONS TO VISIBILITY.

 * = STATION DOES NOT REPORT PRECIPITATION (E.G. RAIN, SNOW, ETC.)
        OR FOG.

NJZ015>026-261400-
SOUTHERN NEW JERSEY

CITY           SKY/WX    TMP DP  RH WIND       PRES   REMARKS
POMONA         CLOUDY    71  64  78 NE8       30.23R
WILDWOOD*      CLOUDY    72  62  71 NE9       30.23R
MILLVILLE      CLOUDY    70  65  84 NE8       30.23R
MOUNT HOLLY    CLOUDY    67  63  87 VRB5      30.25R
TRENTON        CLOUDY    68  62  81 E5        30.25R

$$
NJZ001>014-261400-
NORTHERN NEW JERSEY

CITY           SKY/WX    TMP DP  RH WIND       PRES   REMARKS
SUSSEX         PTSUNNY   66  59  78 CALM      30.28R
ANDOVER*         N/A     65  58  78 NW5       30.28R
MORRISTOWN     MOSUNNY   68  59  73 CALM      30.26S
NEWARK         MOSUNNY   71  57  61 VRB7      30.25R
TETERBORO      SUNNY     71  57  61 VRB3      30.25R
CALDWELL       MOSUNNY   69  58  67 E3        30.27R
SOMERVILLE     SUNNY     71  60  68 N3        30.25R
ALLAIRE*       CLOUDY    68  59  73 NE8       30.26R
TOMS RIVER*    CLOUDY    69  61  75 NE7       30.26R

$$
PAZ043-044-047-054-055-060>062-066>071-261400-
EASTERN PENNSYLVANIA

CITY           SKY/WX    TMP DP  RH WIND       PRES   REMARKS
PHILADELPHIA   CLOUDY    70  62  76 E6        30.26R
NORTH PHILA    CLOUDY    70  62  76 NE6       30.27R
BLUE BELL*     CLOUDY    64  61  88 N3        30.28R
DOYLESTOWN     CLOUDY    67  62  84 VRB3      30.26R
QUAKERTOWN*    CLOUDY    66  61  82 NE3       30.28R
PERKASIE*      CLOUDY    66  63  88 NE5       30.28R
POTTSTOWN      CLOUDY    67  62  84 E5        30.27S
LANCASTER      CLOUDY    69  65  86 E3        30.25F
COATESVILLE    PTSUNNY   68  63  83 E7        30.27S
READING        CLOUDY    68  65  90 NE5       30.25R
ALLENTOWN      CLOUDY    67  60  78 NE7       30.27R
MOUNT POCONO   CLOUDY    59  57  93 SE3       30.30R
HAZLETON         N/A     61  59  94 E5        30.31S
LEHIGHTON      CLOUDY    63  61  94 CALM      30.28S
WILKES BARRE   CLOUDY    65  59  81 SE3       30.27F

$$
DEZALL-MDZ008-012-015-019-020-261400-
DELAWARE AND EASTERN MARYLAND

CITY           SKY/WX    TMP DP  RH WIND       PRES   REMARKS
WILMINGTON     PTSUNNY   72  63  73 E7        30.25R
DOVER          CLOUDY    70  70 100 NE5       30.22R
GEORGETOWN     CLOUDY    74  64  71 E7        30.23R
EASTON         PTSUNNY   75  66  73 E5        30.26R
ABERDEEN       CLOUDY    71  65  80 E7        30.24R
PATUXENT       PTSUNNY   76  68  76 E6        30.21R
OCEAN CITY     PTSUNNY   73  67  81 E5        30.21R
WALLOPS ISLAND PTSUNNY   75  66  73 E3        30.20R
CAMBRIDGE      SUNNY     73  66  78 E7        30.22R
SALISBURY      MOSUNNY   74  68  81 E5        30.21R

$$
PAZ001-021-NYZ056-072-MDZ011-DCZ001-261400-
OTHER NEARBY LOCATIONS

CITY           SKY/WX    TMP DP  RH WIND       PRES   REMARKS
HARRISBURG     PTSUNNY   69  63  81 CALM      30.24S
STATE COLLEGE  FOG       57  57 100 CALM      30.27S VSB 1
WILLIAMSPORT   CLOUDY    61  59  93 CALM      30.26S
BINGHAMTON     CLOUDY    59  58  96 S3        30.27F
NEW YORK CITY  SUNNY     70  55  59 E5        30.28R
BALTIMORE      PTSUNNY   71  68  90 VRB3      30.22S
WASHINGTON DC  PTSUNNY   75  67  76 VRB3      30.23R

$$




USA.gov is the U.S. government's official web portal to all federal, state and local government web resources and services.